Regional Weather Roundup
Issued by NWS

Home | Current Version | Previous Version | Text Only | Print | Product List | Glossary On
Versions: 1 2 3 4 5 6 7 8 9 10 11 12 13 14 15 16 17 18 19 20 21 22 23 24 25 26 27 28 29 30 31 32 33 34 35 36 37 38 39 40 41 42 43 44 45 46 47 48 49 50
000
ASUS43 KOAX 290202
RWRNE

WEATHER ROUNDUP FOR NEBRASKA
NATIONAL WEATHER SERVICE OMAHA NE
900 PM CDT SUN MAY 28 2017

NOTES: SATELLITE DATA IS BEING USED TO AUGMENT CLOUD COVER ABOVE
       12000 FEET.
       "FAIR" INDICATES FEW OR NO CLOUDS BELOW 12,000 FEET WITH NO
       SIGNIFICANT WEATHER AND/OR OBSTRUCTIONS TO VISIBILITY.

  * THESE STATIONS DO NOT REPORT WEATHER SUCH AS RAIN...SNOW OR FOG.

NEZ001>004-019>022-054>056-290300-
NEBRASKA PANHANDLE

CITY           SKY/WX    TMP DP  RH WIND       PRES   REMARKS
SCOTTSBLUFF    CLEAR     63  45  51 W5        30.13S
ALLIANCE       PTCLDY    58  47  66 CALM      30.12R
CHADRON        CLOUDY    54  49  83 S9        30.10F
GORDON         FAIR      53  48  84 SW8       30.08F
KIMBALL        CLEAR     59  41  51 N7        30.17R
SIDNEY         PTCLDY    57  46  66 NE8       30.15F
$$

NEZ057>060-069>072-079>082-290300-
SOUTHWEST NEBRASKA

CITY           SKY/WX    TMP DP  RH WIND       PRES   REMARKS
NORTH PLATTE   CLOUDY    62  47  57 NW3       30.06R
IMPERIAL       MOCLDY    62  46  55 N17       30.09R
LEXINGTON      MOCLDY    64  50  59 NW7       30.03R
MCCOOK         MOCLDY    72  44  36 NW3       30.03R
OGALLALA       PTCLDY    61  49  65 N7        30.09F
$$

NEZ005>010-023>029-035>040-094-290300-
NORTH CENTRAL NEBRASKA

CITY           SKY/WX    TMP DP  RH WIND       PRES   REMARKS
VALENTINE      CLOUDY    57  49  74 NW3       30.01F
AINSWORTH      LGT RAIN  56  53  87 W16G23    30.03F
BROKEN BOW     MOCLDY    67  41  38 NW12      30.00R
O`NEILL        CLOUDY    65  41  40 NW13      29.95R
ORD            MOCLDY    62  45  53 SW7       29.94F
THEDFORD       MOCLDY    59  47  64 N15G24    30.09R
$$

NEZ041-046>049-061>064-073>077-083>087-290300-
SOUTH CENTRAL NEBRASKA

CITY           SKY/WX    TMP DP  RH WIND       PRES   REMARKS
GRAND ISLAND   CLEAR     68  42  38 NW3       29.97S
AURORA         CLEAR     69  37  30 NW5       29.96S
HASTINGS       CLEAR     70  46  42 W5        29.98S
HEBRON         CLEAR     69  49  48 CALM      29.95S
HOLDREGE       CLEAR     67  44  43 W5        30.00S
KEARNEY *      PTCLDY    72  43  35 W5        29.99S
$$

NEZ011>018-030>034-042>045-290300-
NORTHEAST NEBRASKA

CITY           SKY/WX    TMP DP  RH WIND       PRES   REMARKS
NORFOLK        CLEAR     66  39  37 W7        29.90F
ALBION         CLOUDY    62  43  49 CALM      29.94S
BLAIR          CLEAR     72  39  30 W5        29.91S
FREMONT        CLEAR     67  38  34 NW5       29.91S
TEKAMAH        CLEAR     68  40  35 W7        29.88S
WAYNE          CLEAR     68  40  35 W7        29.89S
$$

NEZ050>053-065>068-078-088>093-290300-
SOUTHEAST NEBRASKA

CITY           SKY/WX    TMP DP  RH WIND       PRES   REMARKS
LINCOLN        PTCLDY    72  41  32 NW6       29.93S
OMAHA EPPLEY   PTCLDY    72  42  34 W5        29.89S
BEATRICE       CLEAR     65  46  49 NW6       29.93S
FALLS CITY     CLEAR     68  45  43 NW6       29.90R
NEBRASKA CITY  CLEAR     69  34  27 NW7       29.91S
$$

NEZ044-045-051>053-067-290300-
OMAHA AREA

CITY           SKY/WX    TMP DP  RH WIND       PRES   REMARKS
OMAHA EPPLEY   PTCLDY    72  42  34 W5        29.89S
BLAIR          CLEAR     72  39  30 W5        29.91S
FREMONT        CLEAR     67  38  34 NW5       29.91S
MILLARD        CLEAR     72  44  36 CALM      29.90S
OFFUTT AFB     CLEAR     64  47  54 W3        29.89S
WAHOO          FAIR      70  35  28 NW5       29.91F
$$



USA.gov is the U.S. government's official web portal to all federal, state and local government web resources and services.